TimeCDT,TemperatureF,Dew PointF,Humidity,Sea Level PressureIn,VisibilityMPH,Wind Direction,Wind SpeedMPH,Gust SpeedMPH,PrecipitationIn,Events,Conditions,WindDirDegrees,DateUTC
12:53 AM,77.0,64.0,64,29.97,10.0,SSW,6.9,-,N/A,,Clear,210,2013-07-19 05:53:00
1:53 AM,75.9,64.0,67,29.97,10.0,SW,5.8,-,N/A,,Clear,220,2013-07-19 06:53:00
2:53 AM,75.0,63.0,66,29.96,10.0,SW,5.8,-,N/A,,Clear,220,2013-07-19 07:53:00
3:53 AM,73.9,63.0,68,29.95,10.0,SW,5.8,-,N/A,,Clear,220,2013-07-19 08:53:00
4:53 AM,73.0,63.0,71,29.94,10.0,SW,4.6,-,N/A,,Partly Cloudy,220,2013-07-19 09:53:00
5:53 AM,69.1,63.0,81,29.95,10.0,SSW,3.5,-,N/A,,Partly Cloudy,210,2013-07-19 10:53:00
6:53 AM,70.0,64.9,84,29.96,10.0,South,5.8,-,N/A,,Partly Cloudy,190,2013-07-19 11:53:00
7:53 AM,78.1,66.0,66,29.97,10.0,SW,6.9,-,N/A,,Partly Cloudy,220,2013-07-19 12:53:00
8:53 AM,82.0,66.9,60,29.98,10.0,SW,11.5,-,N/A,,Partly Cloudy,230,2013-07-19 13:53:00
9:53 AM,86.0,66.9,53,29.98,10.0,WSW,11.5,-,N/A,,Partly Cloudy,240,2013-07-19 14:53:00
10:53 AM,90.0,66.0,45,29.97,10.0,WSW,12.7,-,N/A,,Scattered Clouds,240,2013-07-19 15:53:00
11:53 AM,91.9,64.9,41,29.95,10.0,WSW,12.7,-,N/A,,Scattered Clouds,240,2013-07-19 16:53:00
12:53 PM,93.0,64.0,38,29.93,10.0,SW,10.4,17.3,N/A,,Scattered Clouds,230,2013-07-19 17:53:00
1:53 PM,93.0,64.0,38,29.91,10.0,WSW,6.9,-,N/A,,Mostly Cloudy,250,2013-07-19 18:53:00
2:53 PM,93.9,64.0,37,29.89,10.0,Variable,5.8,-,N/A,,Mostly Cloudy,0,2013-07-19 19:53:00
3:53 PM,96.1,64.0,35,29.87,10.0,WSW,9.2,-,N/A,,Scattered Clouds,250,2013-07-19 20:53:00
4:53 PM,96.1,64.0,35,29.86,10.0,SW,9.2,16.1,N/A,,Scattered Clouds,230,2013-07-19 21:53:00
5:53 PM,93.0,64.0,38,29.85,10.0,SW,5.8,-,N/A,,Scattered Clouds,220,2013-07-19 22:53:00
6:53 PM,93.0,64.0,38,29.84,10.0,South,4.6,-,N/A,,Mostly Cloudy,190,2013-07-19 23:53:00
7:53 PM,89.1,66.9,48,29.83,10.0,SSW,3.5,-,N/A,,Mostly Cloudy,200,2013-07-20 00:53:00
8:53 PM,86.0,64.0,48,29.85,10.0,WNW,6.9,-,N/A,,Mostly Cloudy,300,2013-07-20 01:53:00
9:53 PM,82.9,64.9,54,29.86,9.0,WNW,6.9,-,N/A,,Scattered Clouds,290,2013-07-20 02:53:00
10:53 PM,81.0,64.9,58,29.87,10.0,NW,5.8,-,N/A,,Mostly Cloudy,310,2013-07-20 03:53:00
11:53 PM,80.1,66.0,62,29.88,10.0,SW,5.8,-,N/A,,Mostly Cloudy,230,2013-07-20 04:53:00